Regional Weather Roundup
Issued by NWS

Home | Current Version | Previous Version | Graphics & Text | Print | Product List | Glossary On
Versions: 1 2 3 4 5 6 7 8 9 10 11 12 13 14 15 16 17 18 19 20 21 22 23 24 25 26 27 28 29 30 31 32 33 34 35 36 37 38 39 40 41 42 43 44 45 46 47 48 49 50
000
ASUS43 KLOT 231758
RWRIL

ILLINOIS REGIONAL WEATHER ROUNDUP
NATIONAL WEATHER SERVICE CHICAGO/ROMEOVILLE IL
100 PM CDT SAT AUG 23 2014

NOTE: "FAIR" INDICATES FEW OR NO CLOUDS BELOW 12,000 FEET WITH NO
SIGNIFICANT WEATHER AND/OR OBSTRUCTIONS TO VISIBILITY.

* THESE STATIONS ARE NOT UNDER NWS QUALITY CONTROL. THEY ALSO MAY NOT
  REPORT WEATHER SUCH AS PRECIPITATION OR FOG.

ILZ001-002-007-009-015-016-024-231900-
NORTHWEST ILLINOIS

CITY           SKY/WX    TMP DP  RH WIND       PRES   REMARKS
MOLINE         CLOUDY    72  69  90 E10       29.96F
6HR MIN TEMP:  71; 6HR MAX TEMP:  77; 6HR PCP:  0.45;

$$

ILZ003-004-008-010-011-017-018-231900-
NORTH CENTRAL ILLINOIS

CITY           SKY/WX    TMP DP  RH WIND       PRES   REMARKS
ROCKFORD       NOT AVBL
$$

ILZ005-006-012>014-019>023-231900-
NORTHEAST ILLINOIS

CITY           SKY/WX    TMP DP  RH WIND       PRES   REMARKS
CHICAGO-OHARE  CLOUDY    83  73  72 NE9       30.00S HX  89
6HR MIN TEMP:  73; 6HR MAX TEMP:  86;

CHICAGO-MIDWAY CLOUDY    85  75  72 E9        29.99S HX  93
6HR MIN TEMP:  78; 6HR MAX TEMP:  87;

AURORA         CLOUDY    80  74  81 SW6       30.03R HX  85
6HR MIN TEMP:  74; 6HR MAX TEMP:  84;

WAUKEGAN       CLOUDY    77  72  84 NE6       30.01S
6HR MIN TEMP:  71; 6HR MAX TEMP:  80;

DUPAGE AIRPORT CLOUDY    83  74  74 S5        30.01S HX  89
6HR MIN TEMP:  73; 6HR MAX TEMP:  86;

WHEELING       CLOUDY    82  73  74 NE8       30.02S HX  87
6HR MIN TEMP:  73; 6HR MAX TEMP:  85;

NORTHERLY ISL    N/A     74  72  93 N7          N/A
$$

LMZ740>746-231900-
SOUTHERN LAKE MICHIGAN

STATION/POSITION SKY/WX   TEMP    WIND        PRES    VSBY  WAVE
                          AIR SEA DIR/SP/G                  HT/PER
                          (F)     (DEG/KT/KT) (MB)    (MI)  (FT/S)
SOUTHERN BUOY              69 69  110/  8/ 10 1016.9R         1
WAUKEGAN HARBOR            72      50/  8/  8   N/A
HARRISON CRIB              72      30/  9/ 10   N/A
BURNHAM HARBOR             75      40/  6/  7   N/A
CALUMET HARBOR             76      10/  8/  9 1015.0F
MICHIGAN CITY              75     360/ 10/ 11   N/A
MICHIGAN CITY 6N           75 74   40/  8/ 10   N/A           1
ST. JOSEPH                 76 73  110/  4/  6   N/A           0
$$

ILZ025>027-034>036-040-047-049-050-058-095>099-231900-
WEST-CENTRAL ILLINOIS

CITY           SKY/WX    TMP DP  RH WIND       PRES   REMARKS
$$

ILZ028>032-037-038-041>044-048-051>054-059>061-231900-
CENTRAL ILLINOIS

CITY           SKY/WX    TMP DP  RH WIND       PRES   REMARKS
PEORIA         NOT AVBL
SPRINGFIELD    PTSUNNY   91  79  67 N8        29.96F HX 107
6HR MIN TEMP:  77; 6HR MAX TEMP:  91; 6HR PCP:  0.02;

TAYLORVILLE    NOT AVBL
$$

ILZ033-039-045-046-055>057-062-063-231900-
EAST-CENTRAL ILLINOIS

CITY           SKY/WX    TMP DP  RH WIND       PRES   REMARKS
MATTOON        CLOUDY    86  79  79 E3        29.97S HX  99
$$

ILZ079-100>102-231900-
SOUTHWEST ILLINOIS

CITY           SKY/WX    TMP DP  RH WIND       PRES   REMARKS
ALTON          MOSUNNY   91  77  62 N10       29.96S HX 105
$$

ILZ064>066-069>071-074>076-080>082-084>086-088>090-092>094-231900-
SOUTH-CENTRAL ILLINOIS

CITY           SKY/WX    TMP DP  RH WIND       PRES   REMARKS
CARBONDALE     SUNNY     92  76  59 CALM      29.96F HX 104
6HR MIN TEMP:  76; 6HR MAX TEMP:  93;

MARION         SUNNY     93  77  59 NW12      29.98F HX 107
$$

ILZ067-068-072-073-078-083-087-091-231900-
SOUTHEAST ILLINOIS

CITY           SKY/WX    TMP DP  RH WIND       PRES   REMARKS
LAWRENCEVILLE  CLOUDY    88  78  72 VRB6      29.97F HX 101
$$

ABBREVIATIONS USED IN REMARKS
   TC - TEMPERATURE IN CELSIUS
  WCI - WIND CHILL INDEX
   HX - HEAT INDEX
  VSB - VISIBILITY
$$



USA.gov is the U.S. government's official web portal to all federal, state and local government web resources and services.